Regional Weather Roundup
Issued by NWS

Home | Current Version | Previous Version | Text Only | Print | Product List | Glossary Off
Versions: 1 2 3 4 5 6 7 8 9 10 11 12 13 14 15 16 17 18 19 20 21 22 23 24 25 26 27 28 29 30 31 32 33 34 35 36 37 38 39 40 41 42 43 44 45 46 47 48 49 50

000
ASUS44 KMEG 301810
RWRTN
TENNESSEE HOURLY STATE WEATHER ROUNDUP
NATIONAL WEATHER SERVICE MEMPHIS TN
100 PM CDT MON MAR 30 2015

TNZ002-004-019-021-049-052-054-088>092-301900-
WEST TENNESSEE

CITY           SKY/WX    TMP DP  RH WIND       PRES   REMARKS
MEMPHIS INTL   MOSUNNY   68  38  33 N3        30.22F
NWS MEMPHIS      N/A     67 N/A N/A MISG        N/A
JACKSON        SUNNY     66  34  30 N5        30.22F
DYERSBURG      SUNNY     63  30  29 N3        30.24F
UNION CITY     SUNNY     61  39  44 NW8       30.21F
PARIS          SUNNY     61  28  29 VRB6      30.22F
HUNTINGDON     SUNNY     63  29  27 VRB6      30.22F
LEXINGTON      SUNNY     64  30  27 VRB3      30.20F
SAVANNAH       SUNNY     66  37  34 N8        30.22S
$$

TNZ008-025-027-028-033-062-065-066-301900-
NORTH MIDDLE TENNESSEE

CITY           SKY/WX    TMP DP  RH WIND       PRES   REMARKS
NASHVILLE      MOSUNNY   66  26  22 NW12G20   30.20F
CLARKSVILLE    SUNNY     62  26  25 VRB6      30.20F
SMYRNA         SUNNY     65  29  26 N14       30.20F
COOKEVILLE     SUNNY     64  32  29 N10         N/A
CROSSVILLE     SUNNY     61  27  27 NW13G24   30.16F
$$

TNZ061-075-076-078-094-096-097-301900-
SOUTH MIDDLE TENNESSEE

CITY           SKY/WX    TMP DP  RH WIND       PRES   REMARKS
FAYETTEVILLE   SUNNY     61  34  36 N9        30.19F
TULLAHOMA      SUNNY     63  30  29 NW9       30.21R
WINCHESTER     SUNNY     63  34  34 NW10      30.20S
MCMINNVILLE    SUNNY     63  34  34 N9        30.18F
COLUMBIA       SUNNY     64  36  34 VRB3      30.19F
SHELBYVILLE    SUNNY     64  37  36 NW12      30.21S
$$

TNZ017-018-042-046-047-301900-
NORTHEAST TENNESSEE

CITY           SKY/WX    TMP DP  RH WIND       PRES   REMARKS
TRI CITIES     MOSUNNY   61  33  35 W18G26    30.09S
ELIZABETHTON   PTCLDY    54  34  47 W15       30.08S
$$

TNZ012-013-036-069-073-074-301900-
CENTRAL EAST TENNESSEE

CITY           SKY/WX    TMP DP  RH WIND       PRES   REMARKS
KNOXVILLE      MOSUNNY   63  38  39 W13       30.12F
OAK RIDGE      SUNNY     66  32  28 W9        30.13F
GATLINBURG     MOCLDY    61  41  48 VRB6      30.12F
MORRISTOWN     CLEAR     63  34  34 NW13      30.12S
$$

TNZ083-085-099-301900-
SOUTHEAST TENNESSEE

CITY           SKY/WX    TMP DP  RH WIND       PRES   REMARKS
CHATTANOOGA    MOSUNNY   65  37  35 NW13      30.16F
$$

SKY/WX REPORTED AS FAIR MEANS FEW OR NO CLOUDS BELOW
12 THOUSAND FEET.




USA.gov is the U.S. government's official web portal to all federal, state and local government web resources and services.